DG5MLB Weather Reports


time (UTC)temp
C
wind
direction
speed
KPH
gust
KPH
rain 1hr
cm
rain 24hr
cm
rain mn
cm
humidity
%
barometer
mb
20200708140007 25 218 9.7 16.1 0.00 0.00 0.00 39 1014.4
20200708134551 25 351 8.0 20.9 0.00 0.00 0.00 39 1014.5
20200708133011 25 9 6.4 24.1 0.00 0.00 0.00 39 1014.4
20200708131638 24 279 8.0 25.7 0.00 0.00 0.00 39 1014.3
20200708130018 24 246 11.3 25.7 0.00 0.00 0.00 38 1014.4
20200708124600 25 267 8.0 19.3 0.00 0.00 0.00 37 1014.5
20200708123012 24 286 8.0 20.9 0.00 0.00 0.00 38 1014.6
20200708121540 24 248 11.3 25.7 0.00 0.00 0.00 35 1014.6
20200708120006 23 267 8.0 27.4 0.00 0.00 0.00 37 1014.7
20200708114553 23 274 9.7 20.9 0.00 0.00 0.00 38 1014.8
20200708113019 23 290 11.3 27.4 0.00 0.00 0.00 38 1015.0
20200708111636 23 272 8.0 27.4 0.00 0.00 0.00 39 1015.0
20200708110016 23 248 6.4 19.3 0.00 0.00 0.00 39 1015.1
20200708104637 23 257 9.7 20.9 0.00 0.00 0.00 42 1015.2
20200708103009 22 204 3.2 17.7 0.00 0.00 0.00 44 1015.3
20200708101634 22 340 6.4 22.5 0.00 0.00 0.00 45 1015.3
20200708100016 22 281 11.3 24.1 0.00 0.00 0.00 45 1015.3
20200708094635 22 208 8.0 22.5 0.00 0.00 0.00 46 1015.5
20200708093123 21 240 14.5 24.1 0.00 0.00 0.00 46 1015.5
20200708091519 21 271 9.7 16.1 0.00 0.00 0.00 47 1015.6
20200708090143 21 311 6.4 12.9 0.00 0.00 0.00 49 1015.7
20200708084551 20 211 8.0 16.1 0.00 0.00 0.00 49 1015.7
20200708083135 20 22 3.2 12.9 0.00 0.00 0.00 50 1015.8
20200708081542 20 323 4.8 14.5 0.00 0.00 0.00 51 1015.8
20200708080120 19 282 6.4 16.1 0.00 0.00 0.00 52 1015.9
20200708074518 19 291 6.4 16.1 0.00 0.00 0.00 54 1016.0
20200708073127 18 267 6.4 14.5 0.00 0.00 0.00 54 1016.1
20200708071508 18 292 4.8 12.9 0.00 0.00 0.00 57 1016.2
20200708070041 17 272 6.4 12.9 0.00 0.00 0.00 60 1016.3
20200708063148 16 242 6.4 12.9 0.00 0.00 0.00 65 1016.3
20200708061910 16 209 3.2 11.3 0.00 0.00 0.00 68 1016.2
20200708060059 15 254 6.4 17.7 0.00 0.00 0.00 69 1016.1
20200708054714 15 221 6.4 17.7 0.00 0.00 0.00 71 1016.1
20200708053026 14 201 4.8 11.3 0.00 0.00 0.00 73 1016.2
20200708051740 13 216 3.2 9.7 0.00 0.00 0.00 75 1016.2
20200708050018 13 259 3.2 11.3 0.00 0.00 0.00 79 1016.1
20200708044638 12 223 3.2 8.0 0.00 0.00 0.00 83 1016.0
20200708043008 11 214 1.6 6.4 0.00 0.00 0.00 86 1016.1
20200708041557 11 204 0.0 4.8 0.00 0.00 0.00 87 1016.0
20200708040254 10 227 1.6 6.4 0.00 0.00 0.00 87 1016.0
20200708034555 10 219 1.6 6.4 0.00 0.00 0.00 87 1015.9
20200708033210 10 221 1.6 3.2 0.00 0.00 0.00 87 1015.8
20200708031529 10 205 0.0 6.4 0.00 0.00 0.00 87 1015.6
20200708030051 10 184 0.0 6.4 0.00 0.00 0.00 86 1015.6
20200708023215 9 283 0.0 3.2 0.00 0.00 0.00 85 1015.7
20200708021557 9 311 0.0 3.2 0.00 0.00 0.00 84 1015.7
20200708020133 9 311 0.0 3.2 0.00 0.00 0.00 84 1015.8
20200708014608 9 311 0.0 1.6 0.00 0.00 0.00 84 1016.0
20200708013157 9 311 0.0 1.6 0.00 0.00 0.00 83 1016.0
20200708011530 9 311 0.0 0.0 0.00 0.00 0.00 83 1016.2
20200708010149 9 311 0.0 0.0 0.00 0.00 0.00 83 1016.2
20200708004557 10 311 0.0 0.0 0.00 0.00 0.00 82 1016.3
20200708003130 10 311 0.0 1.6 0.00 0.00 0.00 82 1016.4
20200708001559 10 311 0.0 1.6 0.00 0.00 0.00 82 1016.4
20200708000206 10 5 0.0 3.2 0.00 0.00 0.00 82 1016.7
20200707234547 10 5 0.0 0.0 0.00 0.00 0.00 82 1016.7
20200707233115 10 5 0.0 3.2 0.00 0.00 0.00 82 1016.7
20200707231535 10 5 0.0 0.0 0.00 0.00 0.00 82 1016.9
20200707230058 10 5 0.0 1.6 0.00 0.00 0.00 82 1016.8
20200707224525 10 5 0.0 1.6 0.00 0.00 0.00 82 1016.9
20200707223115 11 5 0.0 1.6 0.00 0.00 0.00 81 1016.9
20200707221602 11 5 0.0 0.0 0.00 0.00 0.00 81 1017.0
20200707220051 11 5 0.0 0.0 0.00 0.00 0.00 80 1017.0
20200707214519 11 5 0.0 0.0 0.00 0.00 0.00 79 1017.0
20200707213119 12 5 0.0 1.6 0.00 0.00 0.00 79 1017.0
20200707211549 12 5 0.0 3.2 0.00 0.00 0.00 77 1016.9
20200707210127 12 5 0.0 1.6 0.00 0.00 0.00 76 1016.9
20200707204527 13 5 0.0 3.2 0.00 0.00 0.00 74 1016.8
20200707203129 13 5 0.0 0.0 0.00 0.00 0.00 71 1016.9
20200707201614 14 5 0.0 3.2 0.00 0.00 0.00 69 1016.8
20200707200209 15 5 0.0 1.6 0.00 0.00 0.00 66 1016.7
20200707194618 16 5 0.0 1.6 0.00 0.00 0.00 63 1016.6
20200707193004 17 5 0.0 1.6 0.00 0.00 0.00 60 1016.5
20200707191622 18 5 0.0 1.6 0.00 0.00 0.00 54 1016.5
20200707190008 19 5 0.0 4.8 0.00 0.00 0.00 46 1016.3
20200707184556 20 344 0.0 4.8 0.00 0.00 0.00 46 1016.3
20200707183016 20 331 3.2 6.4 0.00 0.00 0.00 43 1016.2
20200707181620 20 329 3.2 6.4 0.00 0.00 0.00 42 1016.2
20200707180019 20 327 1.6 6.4 0.00 0.00 0.00 43 1016.3
20200707174552 20 336 6.4 11.3 0.00 0.00 0.00 42 1016.3
20200707173024 21 51 3.2 9.7 0.00 0.00 0.00 41 1016.3
20200707171627 21 350 4.8 11.3 0.00 0.00 0.00 40 1016.3
20200707170027 21 313 4.8 9.7 0.00 0.00 0.00 38 1016.4
20200707164637 21 322 4.8 11.3 0.00 0.00 0.00 39 1016.5
20200707163013 22 263 4.8 9.7 0.00 0.00 0.00 38 1016.6
20200707161607 22 281 3.2 11.3 0.00 0.00 0.00 37 1016.7
20200707160018 22 322 4.8 9.7 0.00 0.00 0.00 37 1016.8
20200707154536 22 315 4.8 8.0 0.00 0.00 0.00 37 1016.7
20200707153012 22 340 3.2 9.7 0.00 0.00 0.00 38 1016.8
20200707151610 22 231 1.6 11.3 0.00 0.00 0.00 38 1016.9
20200707150007 22 316 3.2 9.7 0.00 0.00 0.00 38 1016.9
20200707144555 21 245 1.6 11.3 0.00 0.00 0.00 38 1017.1
20200707143059 21 344 4.8 14.5 0.00 0.00 0.00 38 1017.3
20200707141553 21 283 3.2 9.7 0.00 0.00 0.00 38 1017.4